Pasco, WA

4:19 AM PDT on May 29, 2017 (GMT -0700)
Tri-Cities

Weather History for KPSC - June, 2013

Change the Weather History Date:

Monday, June 17, 2013

  Actual Average Record
Temperature  
Mean Temperature 78 °F 68 °F  
Max Temperature 90 °F 83 °F 95 °F (2003)
Min Temperature 66 °F 52 °F 39 °F (2016)
Degree Days  
Heating Degree Days 0 1  
Month to date heating degree days 9 25  
Since 1 June heating degree days 9 25  
Since 1 July heating degree days 4716 5015  
Cooling Degree Days 13 4  
Month to date cooling degree days 68 47  
Year to date cooling degree days 114 80  
Since 1 June cooling degree days 68 47  
Growing Degree Days 28 (Base 50)    
Moisture  
Dew Point 48 °F    
Average Humidity 40    
Maximum Humidity 59    
Minimum Humidity 20    
Precipitation  
Precipitation 0.02 in 0.03 in 0.55 in (1965)
Month to date precipitation 0.02 0.48  
Year to date precipitation 1.90 4.73  
Snow  
Snow 0.00 in - - ()
Snow Depth 0.00 in    
Sea Level Pressure  
Sea Level Pressure 29.90 in    
Wind  
Wind Speed 9 mph (WSW)    
Max Wind Speed 26 mph    
Max Gust Speed 32 mph    
Visibility 10 miles    
Events Rain    
T = Trace of Precipitation, MM = Missing Value Source: NWS Daily Summary

Daily Weather History Graph

Daily Weather History Graph

Search for Another Location

Airport or City:

Trip Planner

Search our weather history database for the weather conditions in past years. The results will help you decide how hot, cold, wet, or windy it might be!

Date:

Astronomy

Jun. 17, 2013 Rise Set
Actual Time 5:04 AM PDT 8:51 PM PDT
Civil Twilight 4:25 AM PDT 9:29 PM PDT
Nautical Twilight 3:32 AM PDT 10:22 PM PDT
Astronomical Twilight 2:17 AM PDT 11:37 PM PDT
Moon 2:18 PM PDT (6/17) 1:01 AM PDT (6/17)
Length of Visible Light 17h 04m
Length of Day
15h 47m
First Quarter, 61% of the Moon is Illuminated
Jun 17
First Quarter
Jun 23
Full
Jun 29
Last Quarter
Jul 8
New
Jul 15
First Quarter

Hourly Weather History & Observations

Time (PDT) Temp. Dew Point Humidity Pressure Visibility Wind Dir Wind Speed Gust Speed Precip Events Conditions
12:53 AM 75.0 °F 52.0 °F 44% 29.94 in 10.0 mi SW 5.8 mph - N/A   Clear
1:53 AM 69.1 °F 50.0 °F 51% 29.96 in 10.0 mi SSW 10.4 mph - N/A   Clear
2:53 AM 68.0 °F 48.9 °F 50% 29.96 in 10.0 mi SW 8.1 mph - N/A   Clear
3:53 AM 66.9 °F 48.9 °F 52% 29.96 in 10.0 mi SW 10.4 mph - N/A   Clear
4:53 AM 66.0 °F 48.9 °F 54% 29.96 in 10.0 mi SW 11.5 mph - N/A   Clear
5:53 AM 66.0 °F 50.0 °F 56% 29.97 in 10.0 mi SW 10.4 mph - N/A   Clear
6:53 AM 68.0 °F 51.1 °F 55% 29.98 in 10.0 mi SW 8.1 mph - N/A   Clear
7:53 AM 70.0 °F 50.0 °F 49% 29.98 in 10.0 mi SW 9.2 mph - N/A   Clear
8:53 AM 75.0 °F 48.9 °F 40% 29.97 in 10.0 mi SW 11.5 mph - N/A   Clear
9:53 AM 77.0 °F 46.9 °F 34% 29.96 in 10.0 mi SW 12.7 mph - N/A   Clear
10:53 AM 80.1 °F 45.0 °F 29% 29.95 in 10.0 mi SW 9.2 mph - N/A   Clear
11:53 AM 82.9 °F 43.0 °F 24% 29.94 in 10.0 mi WSW 9.2 mph - N/A   Clear
12:53 PM 82.0 °F 42.1 °F 24% 29.91 in 10.0 mi Variable 5.8 mph - N/A   Clear
1:53 PM 84.9 °F 39.9 °F 20% 29.88 in 10.0 mi SSW 3.5 mph - N/A   Clear
2:53 PM 87.1 °F 41.0 °F 20% 29.86 in 10.0 mi Variable 4.6 mph - N/A   Clear
3:53 PM 88.0 °F 43.0 °F 21% 29.83 in 10.0 mi Variable 5.8 mph - N/A   Clear
4:53 PM 89.1 °F 44.1 °F 21% 29.80 in 10.0 mi Variable 4.6 mph - N/A   Clear
5:53 PM 88.0 °F 46.0 °F 23% 29.78 in 10.0 mi NE 9.2 mph - N/A   Clear
6:53 PM 86.0 °F 46.9 °F 26% 29.79 in 10.0 mi NW 20.7 mph 26.5 mph N/A   Scattered Clouds
7:53 PM 77.0 °F 52.0 °F 42% 29.80 in 10.0 mi NW 12.7 mph - 0.00 in   Scattered Clouds
8:53 PM 73.9 °F 52.0 °F 46% 29.82 in 10.0 mi WNW 13.8 mph - N/A   Scattered Clouds
9:53 PM 68.0 °F 57.9 °F 70% 29.83 in 10.0 mi NW 6.9 mph - N/A Rain Light Rain
10:53 PM 69.1 °F 52.0 °F 54% 29.86 in 10.0 mi NW 9.2 mph - 0.00 in   Mostly Cloudy
11:53 PM 68.0 °F 53.1 °F 59% 29.87 in 10.0 mi NW 6.9 mph - N/A   Mostly Cloudy